TimeEST,TemperatureF,Dew PointF,Humidity,Sea Level PressureIn,VisibilityMPH,Wind Direction,Wind SpeedMPH,Gust SpeedMPH,PrecipitationIn,Events,Conditions,WindDirDegrees,DateUTC
12:53 AM,18.0,8.1,65,29.90,10.0,South,5.8,-,0.00,,Overcast,170,2013-12-13 05:53:00
1:53 AM,16.0,8.1,71,29.89,10.0,Calm,Calm,-,N/A,,Overcast,0,2013-12-13 06:53:00
2:53 AM,18.0,12.0,78,29.90,6.0,Calm,Calm,-,N/A,,Haze,0,2013-12-13 07:53:00
3:53 AM,19.0,12.0,74,29.90,10.0,Calm,Calm,-,0.00,,Overcast,0,2013-12-13 08:53:00
4:53 AM,18.0,9.0,68,29.92,10.0,WNW,3.5,-,0.00,,Overcast,300,2013-12-13 09:53:00
5:53 AM,18.0,6.1,60,29.94,10.0,WNW,10.4,18.4,N/A,,Overcast,300,2013-12-13 10:53:00
6:53 AM,17.1,5.0,59,29.96,10.0,WNW,4.6,-,N/A,,Overcast,300,2013-12-13 11:53:00
7:53 AM,17.1,3.0,54,30.00,10.0,WNW,8.1,-,N/A,,Overcast,290,2013-12-13 12:53:00
8:53 AM,16.0,3.9,59,30.04,10.0,West,9.2,17.3,N/A,,Overcast,280,2013-12-13 13:53:00
9:53 AM,17.1,3.9,56,30.07,10.0,Variable,6.9,-,N/A,,Overcast,0,2013-12-13 14:53:00
10:53 AM,17.1,1.0,50,30.08,10.0,NW,9.2,17.3,N/A,,Mostly Cloudy,320,2013-12-13 15:53:00
11:53 AM,14.0,5.0,67,30.09,9.0,North,16.1,-,N/A,,Overcast,360,2013-12-13 16:53:00
12:53 PM,14.0,-0.9,52,30.12,10.0,North,19.6,26.5,N/A,,Clear,350,2013-12-13 17:53:00
1:53 PM,12.9,-4.0,47,30.14,10.0,NNW,16.1,23.0,N/A,,Partly Cloudy,340,2013-12-13 18:53:00
2:53 PM,12.0,-6.0,44,30.17,10.0,NNW,11.5,20.7,N/A,,Clear,340,2013-12-13 19:53:00
3:53 PM,9.0,-7.1,48,30.23,10.0,NNW,6.9,-,N/A,,Clear,340,2013-12-13 20:53:00
4:53 PM,8.1,-6.0,53,30.28,10.0,North,11.5,-,N/A,,Clear,350,2013-12-13 21:53:00
5:53 PM,6.1,-7.1,55,30.32,10.0,North,4.6,-,N/A,,Clear,10,2013-12-13 22:53:00
6:53 PM,3.9,-8.0,58,30.35,10.0,NNW,13.8,-,N/A,,Clear,340,2013-12-13 23:53:00
7:53 PM,3.0,-9.0,57,30.40,10.0,North,8.1,-,N/A,,Clear,360,2013-12-14 00:53:00
8:53 PM,1.9,-9.9,58,30.42,10.0,NW,5.8,-,N/A,,Clear,320,2013-12-14 01:53:00
9:53 PM,1.9,-9.9,58,30.45,10.0,Calm,Calm,-,N/A,,Clear,0,2013-12-14 02:53:00
10:53 PM,-0.0,-9.0,66,30.45,10.0,North,8.1,-,N/A,,Clear,350,2013-12-14 03:53:00
11:53 PM,-0.0,-9.9,63,30.49,10.0,NW,4.6,-,N/A,,Clear,320,2013-12-14 04:53:00